Regional Weather Roundup
Issued by NWS

Home | Current Version | Previous Version | Text Only | Print | Product List | Glossary On
Versions: 1 2 3 4 5 6 7 8 9 10 11 12 13 14 15 16 17 18 19 20 21 22 23 24 25 26 27 28 29 30 31 32 33 34 35 36 37 38 39 40 41 42 43 44 45 46 47 48 49 50
000
ASUS43 KLMK 071010
RWRKY
KENTUCKY REGIONAL WEATHER ROUNDUP
NATIONAL WEATHER SERVICE LOUISVILLE KY
500 AM EST SUN FEB 07 2016

NOTE "FAIR" INDICATES FEW OR NO CLOUDS BELOW 12,000 FEET
WITH NO SIGNIFICANT WEATHER AND/OR OBSTRUCTIONS TO VISIBILITY.

KYZ001>023-026-027-061>063-070>075-071100-
WESTERN AND SOUTH CENTRAL KENTUCKY

CITY           SKY/WX    TMP DP  RH WIND       PRES   REMARKS
PADUCAH        CLEAR     31  21  66 SW5       30.18F WCI  26
HENDERSON      CLEAR     32  21  64 SW7       30.17F WCI  26
OWENSBORO      CLEAR     33  25  73 S5        30.18F WCI  28
HOPKINSVILLE   CLEAR     31  21  64 SW2       30.19F
BOWLING GREEN  CLEAR     26  24  92 CALM      30.20F
GLASGOW        CLEAR     26  26 100 CALM      30.19F
$$

KYZ024-025-028>034-038-045-046-053-071100-
NORTH CENTRAL KENTUCKY

CITY           SKY/WX    TMP DP  RH WIND       PRES   REMARKS
LOUISVILLE/SDF CLEAR     33  22  63 S3        30.16F
LOUISVILLE/LOU CLEAR     30  24  78 CALM      30.17F
FORT KNOX      CLEAR     29  22  73 SW5       30.15F WCI  24
$$

KYZ035>037-039>044-047>052-055>060-089>105-071100-
NORTHEAST KENTUCKY

CITY           SKY/WX    TMP DP  RH WIND       PRES   REMARKS
LEXINGTON      CLEAR     32  21  64 SW6       30.16F WCI  26
COVINGTON      CLEAR     31  23  72 S7        30.13F WCI  24
FRANKFORT      CLEAR     25  20  81 CALM      30.15F
$$

KYZ054-064>069-076>088-106>120-071100-
SOUTHEAST KENTUCKY

CITY           SKY/WX    TMP DP  RH WIND       PRES   REMARKS
JACKSON        CLEAR     31  20  63 SW3       30.15F
LONDON         CLEAR     25  21  85 CALM      30.17F
SOMERSET       CLEAR     25  25 100 CALM      30.20S
MIDDLESBORO    CLEAR     25  24  96 CALM      30.19F
MONTICELLO     SUNNY     19  17  92 CALM      30.20F
$$




USA.gov is the U.S. government's official web portal to all federal, state and local government web resources and services.